When you browse on this site, cookies collect data to enhance your experience and personalize the content and advertising you see.
Visit our Privacy Policy to learn more. By continuing to use the site, you agree to this use of cookies and data.
  • Em Portugal
  • Lista de países
  • Para 7 dias
  • Temperatura da água
  • Mapas de satélite
  • Mapa do tempo
  • Widgets de tempo
  • user-avatar
    Iniciar Sessão

    Previsão horária em Branno

    Hoje, 24 Abril, Quarta-feira

    Tempo Temperatura Precipitação Vento Pressão Humidade
    00:00 +11°C° 0 mm 7 m/s 751 mmHg 56%
    01:00 +10°C° 0 mm 5 m/s 751 mmHg 60%
    02:00 +10°C° 0 mm 5 m/s 751 mmHg 62%
    03:00 +9°C° 0 mm 5 m/s 751 mmHg 65%
    04:00 +9°C° 0 mm 6 m/s 751 mmHg 67%
    05:00 +10°C° 0 mm 6 m/s 751 mmHg 69%
    06:00 +10°C° 0 mm 6 m/s 751 mmHg 70%
    07:00 +11°C° 0 mm 7 m/s 751 mmHg 70%
    08:00 +14°C° 0 mm 7 m/s 751 mmHg 66%
    09:00 +15°C° 0 mm 7 m/s 751 mmHg 62%
    10:00 +17°C° 0 mm 7 m/s 751 mmHg 58%
    11:00 +17°C° 0 mm 7 m/s 751 mmHg 58%
    12:00 +19°C° 0 mm 6 m/s 751 mmHg 58%
    13:00 +19°C° 0 mm 6 m/s 751 mmHg 58%
    14:00 +19°C° 0 mm 6 m/s 750 mmHg 58%
    15:00 +20°C° 0 mm 6 m/s 750 mmHg 58%
    16:00 +20°C° 0 mm 6 m/s 750 mmHg 58%
    17:00 +19°C° 0 mm 5 m/s 750 mmHg 60%
    18:00 +19°C° 0 mm 5 m/s 750 mmHg 63%
    19:00 +18°C° 0 mm 4 m/s 750 mmHg 65%
    20:00 +17°C° 0 mm 4 m/s 750 mmHg 68%
    21:00 +15°C° 0 mm 4 m/s 750 mmHg 71%
    22:00 +14°C° 0 mm 4 m/s 751 mmHg 74%
    23:00 +14°C° 0 mm 5 m/s 750 mmHg 74%

    Amanhã, 25 Abril, Quinta-feira

    Tempo Temperatura Precipitação Vento Pressão Humidade
    00:00 +14°C° 0 mm 5 m/s 750 mmHg 73%
    01:00 +13°C° 0 mm 5 m/s 750 mmHg 73%
    02:00 +13°C° 0 mm 5 m/s 750 mmHg 74%
    03:00 +13°C° 0 mm 5 m/s 750 mmHg 76%
    04:00 +13°C° 0 mm 5 m/s 750 mmHg 78%
    05:00 +14°C° 0 mm 5 m/s 750 mmHg 76%
    06:00 +15°C° 0 mm 5 m/s 750 mmHg 75%
    07:00 +16°C° 0 mm 6 m/s 750 mmHg 73%
    08:00 +17°C° 0 mm 5 m/s 750 mmHg 70%
    09:00 +19°C° 0 mm 5 m/s 750 mmHg 66%
    10:00 +20°C° 0 mm 5 m/s 750 mmHg 62%
    11:00 +21°C° 0 mm 4 m/s 750 mmHg 61%
    12:00 +21°C° 0 mm 4 m/s 750 mmHg 60%
    13:00 +22°C° 0 mm 4 m/s 750 mmHg 58%
    14:00 +22°C° 0 mm 3 m/s 750 mmHg 59%
    15:00 +23°C° 0 mm 2 m/s 750 mmHg 60%
    16:00 +23°C° 0 mm 2 m/s 750 mmHg 60%
    17:00 +22°C° 0 mm 1 m/s 750 mmHg 65%
    18:00 +20°C° 0 mm 1 m/s 750 mmHg 70%
    19:00 +17°C° 0 mm 0 m/s 750 mmHg 74%
    20:00 +18°C° 0 mm 1 m/s 750 mmHg 77%
    21:00 +18°C° 0 mm 1 m/s 750 mmHg 80%
    22:00 +16°C° 0 mm 2 m/s 750 mmHg 83%
    23:00 +16°C° 0 mm 2 m/s 750 mmHg 85%

    Depois de amanhã, 26 Abril, Sexta-feira

    Tempo Temperatura Precipitação Vento Pressão Humidade
    00:00 +15°C° 0 mm 2 m/s 750 mmHg 86%
    01:00 +15°C° 0 mm 2 m/s 750 mmHg 88%
    02:00 +14°C° 0 mm 2 m/s 749 mmHg 88%
    03:00 +14°C° 0 mm 2 m/s 749 mmHg 88%
    04:00 +13°C° 0 mm 3 m/s 749 mmHg 88%
    05:00 +14°C° 0 mm 3 m/s 748 mmHg 83%
    06:00 +16°C° 0 mm 3 m/s 748 mmHg 77%
    07:00 +18°C° 0 mm 3 m/s 748 mmHg 71%
    08:00 +19°C° 0 mm 3 m/s 748 mmHg 65%
    09:00 +21°C° 0 mm 3 m/s 747 mmHg 59%
    10:00 +22°C° 0 mm 3 m/s 747 mmHg 53%
    11:00 +24°C° 0 mm 3 m/s 747 mmHg 51%
    12:00 +25°C° 0 mm 4 m/s 747 mmHg 49%
    13:00 +25°C° 0 mm 4 m/s 746 mmHg 47%
    14:00 +25°C° 0 mm 4 m/s 746 mmHg 47%
    15:00 +25°C° 0 mm 3 m/s 746 mmHg 47%
    16:00 +26°C° 0 mm 3 m/s 745 mmHg 47%
    17:00 +24°C° 0 mm 2 m/s 745 mmHg 53%
    18:00 +22°C° 0 mm 1 m/s 745 mmHg 59%
    19:00 +18°C° 0 mm 0 m/s 745 mmHg 65%
    20:00 +20°C° 0 mm 1 m/s 745 mmHg 67%
    21:00 +19°C° 0 mm 1 m/s 746 mmHg 68%
    22:00 +19°C° 0 mm 1 m/s 746 mmHg 69%
    23:00 +17°C° 0 mm 2 m/s 746 mmHg 74%

    27 Abril, Sábado

    Tempo Temperatura Precipitação Vento Pressão Humidade
    00:00 +16°C° 0 mm 3 m/s 746 mmHg 79%
    01:00 +15°C° 0 mm 4 m/s 746 mmHg 85%
    02:00 +14°C° 0.7 mm 5 m/s 746 mmHg 88%
    03:00 +14°C° 0.7 mm 5 m/s 747 mmHg 90%
    04:00 +13°C° 0.7 mm 5 m/s 747 mmHg 93%
    05:00 +13°C° 0.2 mm 6 m/s 747 mmHg 92%
    06:00 +11°C° 0.2 mm 6 m/s 748 mmHg 91%
    07:00 +11°C° 0.2 mm 6 m/s 748 mmHg 90%
    08:00 +11°C° 0.1 mm 6 m/s 748 mmHg 89%
    09:00 +11°C° 0.1 mm 6 m/s 749 mmHg 88%
    10:00 +11°C° 0.1 mm 6 m/s 749 mmHg 86%
    11:00 +11°C° 0 mm 6 m/s 749 mmHg 84%
    12:00 +12°C° 0 mm 5 m/s 749 mmHg 82%
    13:00 +13°C° 0 mm 5 m/s 749 mmHg 80%
    14:00 +13°C° 0 mm 5 m/s 749 mmHg 77%
    15:00 +14°C° 0 mm 5 m/s 749 mmHg 74%
    16:00 +14°C° 0 mm 4 m/s 749 mmHg 72%
    17:00 +13°C° 0 mm 4 m/s 749 mmHg 73%
    18:00 +13°C° 0 mm 3 m/s 749 mmHg 74%
    19:00 +12°C° 0 mm 3 m/s 749 mmHg 75%
    20:00 +12°C° 0 mm 2 m/s 749 mmHg 77%
    21:00 +12°C° 0 mm 2 m/s 749 mmHg 78%
    22:00 +10°C° 0 mm 2 m/s 750 mmHg 80%
    23:00 +10°C° 0 mm 2 m/s 750 mmHg 78%

    28 Abril, Domingo

    Tempo Temperatura Precipitação Vento Pressão Humidade
    00:00 +10°C° 0 mm 2 m/s 750 mmHg 77%
    01:00 +9°C° 0 mm 2 m/s 750 mmHg 75%
    02:00 +9°C° 0 mm 2 m/s 750 mmHg 76%
    03:00 +9°C° 0 mm 2 m/s 750 mmHg 76%
    04:00 +9°C° 0 mm 2 m/s 750 mmHg 76%
    05:00 +9°C° 0 mm 3 m/s 750 mmHg 76%
    06:00 +10°C° 0 mm 3 m/s 751 mmHg 75%
    07:00 +11°C° 0 mm 4 m/s 751 mmHg 75%
    08:00 +12°C° 0 mm 4 m/s 751 mmHg 72%
    09:00 +13°C° 0 mm 4 m/s 751 mmHg 68%
    10:00 +15°C° 0 mm 5 m/s 752 mmHg 65%
    11:00 +15°C° 0 mm 5 m/s 752 mmHg 63%
    12:00 +16°C° 0 mm 5 m/s 752 mmHg 61%
    13:00 +17°C° 0 mm 5 m/s 752 mmHg 58%
    14:00 +17°C° 0.2 mm 4 m/s 752 mmHg 62%
    15:00 +15°C° 0.2 mm 4 m/s 752 mmHg 66%
    16:00 +16°C° 0.2 mm 3 m/s 752 mmHg 70%
    17:00 +14°C° 0.4 mm 3 m/s 752 mmHg 75%
    18:00 +13°C° 0.4 mm 3 m/s 752 mmHg 80%
    19:00 +12°C° 0.4 mm 4 m/s 752 mmHg 85%
    20:00 +12°C° 0.3 mm 4 m/s 752 mmHg 86%
    21:00 +11°C° 0.3 mm 3 m/s 753 mmHg 88%
    22:00 +11°C° 0.3 mm 3 m/s 753 mmHg 90%
    23:00 +10°C° 0 mm 4 m/s 753 mmHg 90%

    29 Abril, Segunda-feira

    Tempo Temperatura Precipitação Vento Pressão Humidade
    00:00 +10°C° 0 mm 4 m/s 753 mmHg 91%
    01:00 +10°C° 0 mm 4 m/s 753 mmHg 91%
    02:00 +8°C° 0 mm 4 m/s 752 mmHg 92%
    03:00 +8°C° 0 mm 4 m/s 752 mmHg 93%
    04:00 +8°C° 0 mm 4 m/s 752 mmHg 93%
    05:00 +8°C° 0 mm 4 m/s 752 mmHg 92%
    06:00 +10°C° 0 mm 4 m/s 752 mmHg 91%
    07:00 +10°C° 0 mm 4 m/s 752 mmHg 90%
    08:00 +11°C° 0.2 mm 4 m/s 752 mmHg 91%
    09:00 +11°C° 0.2 mm 4 m/s 752 mmHg 91%
    10:00 +11°C° 0.2 mm 4 m/s 752 mmHg 92%
    11:00 +12°C° 0.2 mm 4 m/s 752 mmHg 91%
    12:00 +13°C° 0.2 mm 5 m/s 752 mmHg 89%
    13:00 +14°C° 0.2 mm 5 m/s 752 mmHg 88%
    14:00 +14°C° 0.4 mm 5 m/s 752 mmHg 88%
    15:00 +13°C° 0.4 mm 5 m/s 752 mmHg 87%
    16:00 +13°C° 0.4 mm 5 m/s 752 mmHg 87%
    17:00 +13°C° 0.1 mm 5 m/s 752 mmHg 87%
    18:00 +12°C° 0.1 mm 5 m/s 753 mmHg 87%
    19:00 +12°C° 0.1 mm 4 m/s 753 mmHg 87%
    20:00 +12°C° 0 mm 4 m/s 753 mmHg 87%
    21:00 +11°C° 0 mm 4 m/s 754 mmHg 88%
    22:00 +11°C° 0 mm 4 m/s 754 mmHg 88%
    23:00 +11°C° 0 mm 4 m/s 754 mmHg 86%
    Mostrar mais